Location: Castillon
(43.0896°N, 0.2156°E)
Time: 20:25:40
(UTC+00:00)

SPOT 5 - Pass Details

Date: 16 June 2021
Orbit: 622 x 815 km, 98.2° (Epoch: 23 July)

Event Time Altitude Azimuth Distance (km) Brightness Sun altitude
Exits shadow 22:32:22 19° 219° (SW) 1,816 4.7 -20.5°
Maximum altitude 22:35:06 29° 264° (W) 1,393 4.5 -20.7°
Drops below altitude 10° 22:39:26 10° 324° (NW) 2,271 6.5 -21.0°
Sets 22:41:59 0° 336° (NNW) 3,166 7.7 -21.1°
